Location: Berche du Sauvage
(44.5333°N, 6.8167°E)
Time: 17:20:09
(UTC+00:00)

Daily predictions for brighter satellites

Satellite Brightness Start Highest point End
(mag) Time Altitude Azimuth Time Altitude Azimuth Time Altitude Azimuth
H-2A R/B 4.2 19:50:30 10° SSW 19:55:06 28° W 19:59:44 10° NW
VEP-3 4.4 19:56:40 10° SSW 19:59:19 13° S 20:02:24 10° SE
Cosmos 2322 Rocket 2.3 19:55:03 10° SSW 20:00:39 84° WNW 20:06:19 10° NNE
SPOT 3 Rocket 3.9 19:57:13 10° S 20:02:24 71° WSW 20:07:38 10° NNW
NOSS 7 (D) 3.8 20:00:01 10° SSW 20:02:51 58° SE 20:05:31 10° NE
Cosmos 2237 4.3 19:57:48 10° S 20:03:25 60° ESE 20:09:04 10° NNE
Cosmos 1455 2.3 20:08:57 10° N 20:12:46 59° E 20:16:34 10° SSE
Cosmos 1461 4.1 20:08:28 10° NW 20:12:58 45° WSW 20:17:27 10° S
Cosmos 1825 Rocket 4.1 20:11:12 10° SSE 20:15:20 40° E 20:19:32 10° NNE
ATLAS CENTAUR R/B 3.3 20:16:14 10° N 20:18:46 17° NE 20:21:17 10° E
Cosmos 1703 3.5 20:16:12 10° SSE 20:19:54 47° E 20:23:39 10° NNE
COSMOS 2428 3.8 20:16:16 10° SSE 20:20:47 25° ESE 20:25:19 10° NE
Cosmos 1812 Rocket 3.7 20:18:41 10° NNW 20:23:02 75° W 20:27:20 10° S
Cosmos 2322 4.1 20:19:06 10° S 20:24:30 45° ESE 20:29:56 10° NE
Cosmos 1844 4.1 20:18:51 10° NNW 20:24:32 56° ENE 20:29:32 13° SE
Delta 2 Rocket 4.4 20:24:23 10° SW 20:26:49 18° S 20:28:10 15° SSE
Cosmos 1602 Rocket 4.3 20:24:23 10° SSW 20:28:42 56° WNW 20:33:07 10° N
Cosmos 783 Rocket 4.5 20:25:29 10° S 20:30:41 68° ESE 20:35:53 10° NNE
Cosmos 1709 Rocket 4.2 20:25:18 10° SSE 20:31:24 56° E 20:37:35 10° NNE
Cosmos 2263 Rocket 4.1 20:28:17 10° NW 20:32:35 23° WSW 20:36:52 10° SSW
NOSS 3-3 (A) 4.4 20:27:44 10° S 20:32:57 36° ESE 20:38:41 10° NE
NOSS 3-3 (C) 4.4 20:27:51 10° S 20:33:04 36° ESE 20:38:48 10° NE
MetOp-B 4.2 20:28:12 10° SSE 20:33:34 83° WSW 20:38:57 10° NNW
Nadezhda 1 Rocket 4.2 20:27:16 10° N 20:33:42 80° W 20:40:05 10° S
Cosmos 2237 Rocket 4.0 20:33:12 11° ESE 20:34:48 12° E 20:36:58 10° ENE
Atlas Centaur 2 3.6 20:30:17 10° SW 20:34:53 23° S 20:38:47 14° SE
Terra 3.1 20:31:40 13° ESE 20:35:07 28° ENE 20:39:08 10° N
CARTOSAT-1 4.3 20:32:57 15° SE 20:36:09 39° ENE 20:40:11 10° N
Cosmos 2333 4.3 20:30:49 10° S 20:36:15 54° ESE 20:41:48 10° NE
Cosmos 2219 Rocket 2.7 20:31:39 10° S 20:36:43 37° ESE 20:41:50 10° NE
Cosmos 2360 Rocket 2.4 20:32:54 10° SSW 20:38:33 79° WNW 20:44:14 10° NNE
IGS 5A 3.4 20:35:34 13° SSE 20:39:16 84° ENE 20:43:27 10° N
IRIS 4.4 20:39:28 10° WSW 20:42:19 36° S 20:43:18 24° SE
Cosmos 2333 Rocket 2.5 20:41:01 10° S 20:46:27 48° ESE 20:51:56 10° NE
Resurs 01 Rocket 3.2 20:47:16 10° SSW 20:51:11 31° W 20:55:08 10° NNW
ATLAS 2AS CENTAUR R/B 4.3 20:44:39 10° NNW 20:51:17 30° NNE 20:57:29 10° E
Cosmos 1315 Rocket 3.7 20:48:13 10° N 20:52:00 35° ENE 20:54:13 20° SE
Cosmos 1818 4.1 20:48:34 10° SW 20:53:56 64° NW 20:59:22 10° NNE
Cosmos-2242 3.1 20:51:13 10° NNW 20:55:35 76° W 20:59:06 15° S
Cosmos 773 Rocket 4.0 20:51:14 10° SSW 20:56:31 75° ESE 21:01:49 10° NNE
SL-16 R/B 4.4 20:53:00 10° WSW 20:57:50 28° NW 21:02:42 10° N
Cosmos 2221 3.8 20:56:42 10° NNE 21:00:27 27° ENE 21:02:29 19° ESE
ERS-1 Rocket 3.0 20:56:51 19° SSE 21:00:32 75° ENE 21:05:35 10° N
GEOS 3 Rocket 3.9 20:58:54 10° NE 21:04:18 76° NW 21:09:40 10° SW
Cosmos 1892 4.4 21:07:02 17° E 21:07:37 18° E 21:10:13 10° NE
USA 215 3.2 21:01:06 10° NE 21:07:40 71° SE 21:14:10 10° SW
Cosmos 2278 Rocket 3.2 21:04:11 10° NNW 21:09:24 35° NE 21:13:09 17° ESE
ATLAS 5 CENTAUR R/B 2.6 21:06:45 10° WSW 21:10:45 47° NW 21:15:16 10° NNE
USA 245 4.4 21:08:35 14° SSW 21:11:00 35° W 21:14:40 10° NNW
Meteor 1-11 4.2 21:05:32 10° S 21:11:06 88° E 21:16:49 10° N
Cosmos 1844 Rocket 3.3 21:08:54 10° NW 21:14:16 50° WSW 21:18:16 18° S
Cosmos 1400 Rocket 3.8 21:11:05 10° NNW 21:14:52 42° W 21:17:41 16° SSW
SPOT 5 2.9 21:13:56 22° SSE 21:17:15 88° WSW 21:22:07 10° NNW
Lacrosse 5 rocket 4.3 21:17:44 10° NW 21:20:05 14° N 21:22:23 10° NNE
USA 81 4.1 21:19:52 17° S 21:24:01 84° W 21:29:20 10° N
Cosmos 2058 3.9 21:24:59 27° ESE 21:25:58 30° E 21:29:37 10° NNE
BREEZE M DEB (TANK) 2.0 21:25:38 10° WNW 21:27:39 48° WSW 21:27:39 48° WSW
Cosmos 1408 4.3 21:29:06 18° E 21:29:06 18° E 21:31:35 10° NE
Cosmos 2181 Rocket 4.1 21:23:31 10° N 21:29:52 77° W 21:34:14 21° S
In-Cosmos 22 Rocket 4.5 21:29:55 28° SSE 21:32:15 46° E 21:37:18 10° NNE
Cosmos 2074 Rocket 4.0 21:29:15 23° S 21:33:09 65° E 21:39:19 10° NNE
Cosmos 1076 Rocket 4.2 21:36:08 32° ESE 21:37:09 36° E 21:41:05 10° NNE
Cosmos 1680 Rocket 4.2 21:35:42 30° SE 21:37:25 38° ESE 21:42:18 10° NE
USA 267 3.6 21:34:04 15° ESE 21:39:32 65° NNE 21:46:01 10° NW
Cosmos 2084 3.4 21:42:06 10° NW 21:46:34 81° SW 21:48:05 41° SSE
Cosmos 1842 Rocket 3.5 21:43:01 10° N 21:47:23 82° W 21:49:02 38° S
OAO 2 Rocket 4.3 21:44:05 10° WSW 21:48:29 29° S 21:48:29 29° S
JB-3 4.1 21:45:00 10° NNE 21:48:51 79° ESE 21:49:57 45° S
MTI 3.6 21:49:42 10° N 21:52:47 79° WNW 21:53:10 64° SW
Cosmos 923 Rocket 3.9 21:52:19 31° S 21:54:51 70° ESE 22:00:07 10° NNE
Cosmos 2327 Rocket 4.5 21:52:14 30° SSE 21:55:21 66° E 22:01:26 10° NNE
ATLAS CENTAUR R/B 1.3 21:54:22 10° NW 21:57:58 53° WSW 21:58:26 48° SSW
Cosmos 1825 3.4 21:58:09 27° E 21:58:09 27° E 22:01:21 10° NNE
ALOS 2 4.3 21:58:03 19° E 21:59:34 22° ENE 22:02:57 10° NNE
Cosmos 1980 3.7 21:56:55 30° S 21:59:39 66° ESE 22:05:16 10° NNE
Cosmos 967 Rocket 4.5 21:55:33 11° SSW 22:01:54 87° SE 22:08:25 10° NE
COSMOS 2428 3.5 21:59:11 10° SW 22:04:42 52° WNW 22:10:15 10° NNE
Cosmos 1869 3.7 22:04:24 10° NNW 22:08:19 55° W 22:09:23 41° SSW
NOSS 0 Rocket 3.9 22:07:31 20° SSW 22:12:01 87° WNW 22:18:14 10° NNE
Terra 2.9 22:10:34 24° SW 22:12:43 35° W 22:17:06 10° NNW
Cosmos 1610 Rocket 4.5 22:11:20 32° S 22:14:32 87° E 22:20:57 10° N
NOSS 3-4 (A) 4.0 22:08:17 10° NW 22:15:16 71° NE 22:19:47 27° SE
NOSS 3-4 (C) 4.0 22:08:23 10° NW 22:15:22 71° NE 22:19:55 27° SE
Cosmos 2237 Rocket 2.1 22:14:58 30° SSW 22:17:55 85° ESE 22:23:40 10° NNE
Genesis I 3.0 22:18:36 67° SE 22:18:40 67° ESE 22:22:34 10° NE
Cosmos 2344 3.5 22:16:02 25° SSW 22:20:32 63° ESE 22:28:16 10° NE
Cosmos 2219 Rocket 3.6 22:15:33 10° WSW 22:20:40 36° NW 22:25:49 10° NNE
Elektron 1 4.3 22:21:21 45° WSW 22:22:16 77° NW 22:27:15 10° NE
BREEZE-M R/B 4.3 22:13:51 10° WNW 22:22:18 41° SW 22:23:36 35° SSW
Atlas Centaur 2 4.1 22:18:29 10° SW 22:21:21 18° SSW 22:21:21 18° SSW
DELTA 2 R/B (1) 3.7 22:23:52 10° WSW 22:29:12 47° S 22:30:03 43° SE
Cosmos 2333 Rocket 4.0 22:26:00 10° WSW 22:30:57 30° NW 22:35:56 10° N
Thor Agena Rocket 3.4 22:26:26 10° NNE 22:31:35 90° SSE 22:33:18 43° SSW
Cosmos 2221 4.0 22:34:13 10° NNW 22:37:58 28° W 22:39:20 23° WSW
BREEZE-M DEB (TANK) 2.3 22:37:49 10° WNW 22:41:20 46° NNE 22:41:22 46° NNE
Iridium 2 3.8 22:38:24 10° N 22:42:12 63° W 22:42:26 61° WSW
Cosmos 1371 Rocket 3.9 22:37:32 10° NNW 22:42:50 87° WSW 22:44:15 50° SSE
Cosmos 1892 4.1 22:41:59 26° WSW 22:43:03 31° WNW 22:46:29 10° N
ATLAS 2AS CENTAUR R/B 2.7 22:35:41 10° NW 22:43:16 89° SW 22:46:25 37° SE
EO 1 Del DPAF 3.3 22:40:53 10° N 22:44:37 66° WNW 22:44:59 61° WSW
Cosmos 1766 Rocket 3.7 22:44:24 54° ESE 22:44:45 55° E 22:49:04 10° NNE
MOS 1-B Rocket 4.3 22:38:52 10° NNE 22:46:36 85° WNW 22:49:57 33° SSW
Okean 3 Rocket 3.5 22:47:03 62° SE 22:47:33 70° E 22:51:59 10° NNE
Aureole 2 Rocket 3.4 22:47:02 10° N 22:48:59 36° NNE 22:48:59 36° NNE
Cosmos 1328 Rocket 4.0 22:45:44 10° N 22:49:54 46° ENE 22:50:25 44° E
USA 215 4.3 22:44:16 10° NE 22:50:29 47° NNW 22:56:39 10° W
Cosmos 2112 Rocket 4.4 22:48:24 30° SW 22:50:57 61° WNW 22:56:17 10° NNE
Cosmos 1606 2.8 22:48:24 10° N 22:52:16 62° E 22:52:19 62° E
Cosmos 2218 Rocket 4.2 22:50:54 40° SSE 22:52:59 59° E 22:59:11 10° NNE
Cosmos 2278 Rocket 3.0 22:48:17 10° NW 22:53:29 38° WSW 22:54:59 32° SW
Cosmos 2297 3.9 22:49:25 10° NNW 22:55:09 67° ENE 22:57:11 40° SE
Cosmos 2366 rocket 4.2 22:56:35 41° SSE 22:58:40 62° E 23:04:55 10° NNE
Cosmos 1420 Rocket 4.3 22:53:47 10° NNW 22:59:01 62° ENE 23:00:36 43° SE
Spot 4 4.3 22:59:07 42° SW 23:00:03 48° W 23:04:42 10° NNW
Lacrosse 5 rocket 3.9 22:57:42 10° NNW 23:00:36 19° NNE 23:03:23 10° ENE
Cosmos 1633 4.2 23:01:11 24° ENE 23:01:11 24° ENE 23:03:38 10° NE
Cosmos 1943 Rocket 3.3 22:56:23 10° NNW 23:01:41 38° NE 23:04:40 22° ESE
SL-16 R/B 2.1 23:00:46 49° S 23:02:15 72° ESE 23:07:55 10° NNE
Cosmos 1408 4.1 23:03:24 26° W 23:03:54 27° WNW 23:07:00 10° NNW
Cosmos 2056 Rocket 3.7 23:01:24 10° NNW 23:06:46 64° WSW 23:07:58 50° SSW
Cosmos 1959 Rocket 4.4 23:06:20 45° SSE 23:08:17 74° E 23:14:28 10° NNE
Cosmos 2341 Rocket 4.2 23:11:47 36° SW 23:14:20 63° W 23:20:31 10° N
Cosmos 332 Rocket 4.1 23:15:38 10° NNW 23:20:24 59° ENE 23:21:28 47° ESE
Meteor 2-3 Rocket 3.7 23:21:02 51° S 23:22:28 77° E 23:28:10 10° NNE
USA 267 3.6 23:21:24 39° SSW 23:22:43 43° SW 23:28:55 10° WNW
IRIDIUM 104 4.3 23:23:26 52° SSW 23:24:39 73° W 23:29:53 10° N
Cosmos 2151 4.1 23:23:52 31° WSW 23:24:47 34° WNW 23:28:43 10° N
Helios 1A 2.9 23:24:53 72° ESE 23:25:09 76° ENE 23:29:20 10° N
Cosmos 405 3.8 23:26:00 10° N 23:29:08 43° ENE 23:29:08 43° ENE
SL-8 Rocket 4.2 23:30:58 37° SW 23:33:18 60° W 23:39:24 10° N
Meteor 1-26 Rocket 4.3 23:27:34 10° N 23:33:37 88° W 23:35:20 49° S
Cosmos 1825 4.1 23:32:56 20° W 23:33:37 21° WNW 23:36:32 10° NNW
Cosmos 1452 Rocket 3.5 23:28:33 10° NNW 23:33:51 82° ENE 23:35:06 54° SSE
Cosmos 1340 2.9 23:34:23 62° WNW 23:34:23 62° WNW 23:37:58 10° N
CZ-4C R/B 3.9 23:27:51 10° NNW 23:34:35 45° NE 23:42:18 10° ESE
ALOS 2 3.3 23:35:27 38° WSW 23:35:39 39° W 23:39:47 10° NNW
COSMOS 2455 3.0 23:29:39 10° NNW 23:35:42 69° NE 23:38:24 34° SE
Cosmos 1408 Rocket 3.5 23:35:56 65° WSW 23:36:20 70° W 23:40:44 10° N
PSLV R/B 4.2 23:32:28 10° NNE 23:36:29 41° E 23:36:34 41° ESE
Cosmos 1603 4.4 23:36:25 36° SE 23:37:19 38° ESE 23:42:34 10° NE
Cosmos 1933 3.8 23:34:25 10° NNW 23:38:13 49° W 23:38:13 49° W
Cosmos 1151 Rocket 3.5 23:35:42 10° NNW 23:39:51 46° W 23:40:03 46° WSW
Cosmos 44 3.9 23:43:38 32° W 23:45:06 43° NW 23:49:21 10° NNE
Cosmos 1500 Rocket 3.5 23:44:49 68° SE 23:45:08 71° E 23:49:32 10° NNE
Cosmos 1727 Rocket 3.9 23:39:48 10° N 23:46:04 82° W 23:48:04 46° S
Cosmos 2369 Rocket 2.6 23:40:48 10° NNW 23:46:20 57° ENE 23:48:49 32° SE
Resurs 1-4 Rocket 4.3 23:44:17 10° ENE 23:46:45 13° E 23:48:44 11° ESE
GP-B 4.2 23:44:08 10° NNW 23:48:08 33° W 23:48:50 31° W
Cosmos 371 Rocket 3.5 23:45:19 10° NNW 23:50:02 53° WSW 23:50:25 51° WSW
SeaSat 1 4.1 23:47:23 10° ENE 23:50:55 20° ESE 23:51:20 19° ESE
Helios 1B rocket 2.7 23:51:15 10° NNE 23:55:19 54° E 23:55:23 54° ESE
